TimeEST,TemperatureF,Dew PointF,Humidity,Sea Level PressureIn,VisibilityMPH,Wind Direction,Wind SpeedMPH,Gust SpeedMPH,PrecipitationIn,Events,Conditions,WindDirDegrees,DateUTC
12:15 AM,32.0,26.6,80,30.41,10.0,East,9.2,16.1,N/A,,Overcast,100,2013-12-08 05:15:00
12:35 AM,32.0,26.6,80,30.39,10.0,ENE,8.1,-,N/A,,Overcast,70,2013-12-08 05:35:00
12:55 AM,32.0,26.6,80,30.39,10.0,ENE,5.8,-,N/A,,Overcast,70,2013-12-08 05:55:00
1:15 AM,32.0,26.6,80,30.39,10.0,ENE,8.1,-,N/A,,Overcast,60,2013-12-08 06:15:00
1:35 AM,32.0,26.6,80,30.36,10.0,East,5.8,-,N/A,,Overcast,80,2013-12-08 06:35:00
1:55 AM,32.0,26.6,80,30.35,10.0,East,8.1,-,N/A,,Overcast,100,2013-12-08 06:55:00
2:15 AM,32.0,26.6,80,30.36,10.0,East,6.9,-,N/A,,Overcast,80,2013-12-08 07:15:00
2:35 AM,32.0,26.6,80,30.35,10.0,ENE,6.9,-,N/A,,Overcast,70,2013-12-08 07:35:00
2:55 AM,32.0,26.6,80,30.34,10.0,East,5.8,-,N/A,,Overcast,80,2013-12-08 07:55:00
3:15 AM,32.0,28.4,87,30.31,5.0,East,8.1,-,0.01,,Overcast,80,2013-12-08 08:15:00
3:35 AM,32.0,28.4,87,30.33,5.0,ENE,5.8,-,0.03,,Overcast,70,2013-12-08 08:35:00
3:55 AM,32.0,30.2,93,30.30,2.0,East,6.9,-,0.12,Snow,Light Snow,90,2013-12-08 08:55:00
4:15 AM,32.0,30.2,93,30.31,3.0,East,6.9,-,0.06,Snow,Light Snow,90,2013-12-08 09:15:00
4:35 AM,32.0,30.2,93,30.29,2.0,East,9.2,-,0.17,Snow,Light Snow,80,2013-12-08 09:35:00
4:55 AM,32.0,32.0,100,30.29,2.5,ENE,3.5,-,0.26,Snow,Light Snow,70,2013-12-08 09:55:00
5:15 AM,32.0,32.0,100,30.28,10.0,East,3.5,-,N/A,,Overcast,80,2013-12-08 10:15:00
5:35 AM,32.0,32.0,100,30.28,10.0,Calm,Calm,-,N/A,,Overcast,0,2013-12-08 10:35:00
5:55 AM,32.0,32.0,100,30.26,10.0,ENE,3.5,-,N/A,,Overcast,70,2013-12-08 10:55:00
6:15 AM,32.0,32.0,100,30.26,10.0,Calm,Calm,-,N/A,,Overcast,0,2013-12-08 11:15:00
6:35 AM,32.0,32.0,100,30.26,10.0,Calm,Calm,-,N/A,,Overcast,0,2013-12-08 11:35:00
6:55 AM,32.0,32.0,100,30.27,5.0,ENE,3.5,-,N/A,,Overcast,60,2013-12-08 11:55:00
7:15 AM,32.0,32.0,100,30.25,2.5,East,3.5,-,0.02,Snow,Light Snow,80,2013-12-08 12:15:00
7:35 AM,32.0,32.0,100,30.26,4.0,Calm,Calm,-,0.05,,Overcast,0,2013-12-08 12:35:00
7:55 AM,32.0,32.0,100,30.23,5.0,ESE,4.6,-,0.06,,Overcast,110,2013-12-08 12:55:00
8:15 AM,32.0,32.0,100,30.23,4.0,Calm,Calm,-,0.02,,Overcast,0,2013-12-08 13:15:00
8:35 AM,32.0,32.0,100,30.22,4.0,East,3.5,-,0.03,,Overcast,90,2013-12-08 13:35:00
8:55 AM,32.0,32.0,100,30.21,4.0,East,4.6,-,0.04,,Overcast,100,2013-12-08 13:55:00
9:15 AM,32.0,32.0,100,30.20,3.0,ESE,3.5,-,0.02,,Overcast,120,2013-12-08 14:15:00
9:35 AM,32.0,32.0,100,30.20,5.0,Calm,Calm,-,0.03,,Overcast,0,2013-12-08 14:35:00
9:55 AM,32.0,32.0,100,30.25,7.0,NNW,5.8,-,0.04,,Overcast,340,2013-12-08 14:55:00
10:15 AM,32.0,32.0,100,30.28,1.5,NW,4.6,-,0.04,Snow,Light Snow,320,2013-12-08 15:15:00
10:35 AM,32.0,32.0,100,30.25,2.5,Calm,Calm,-,0.06,,Overcast,0,2013-12-08 15:35:00
10:55 AM,32.0,32.0,100,30.23,1.5,Calm,Calm,-,0.09,Snow,Light Snow,0,2013-12-08 15:55:00
11:15 AM,33.8,32.0,93,30.22,2.5,Calm,Calm,-,0.02,Rain,Light Rain,0,2013-12-08 16:15:00
11:35 AM,33.8,33.8,100,30.23,3.0,Calm,Calm,-,0.04,,Overcast,0,2013-12-08 16:35:00
11:55 AM,33.8,33.8,100,30.22,4.0,Calm,Calm,-,0.04,,Overcast,0,2013-12-08 16:55:00
12:15 PM,33.8,33.8,100,30.20,2.5,East,3.5,-,N/A,,Light Drizzle,100,2013-12-08 17:15:00
12:35 PM,33.8,33.8,100,30.18,4.0,East,3.5,-,N/A,Rain,Light Rain,100,2013-12-08 17:35:00
12:55 PM,33.8,33.8,100,30.17,4.0,ESE,3.5,-,N/A,Rain,Light Rain,120,2013-12-08 17:55:00
1:15 PM,33.8,33.8,100,30.16,7.0,ESE,4.6,-,N/A,,Overcast,120,2013-12-08 18:15:00
1:35 PM,33.8,33.8,100,30.14,4.0,ESE,3.5,-,N/A,,Overcast,120,2013-12-08 18:35:00
1:55 PM,33.8,33.8,100,30.13,4.0,Calm,Calm,-,N/A,,Overcast,0,2013-12-08 18:55:00
2:15 PM,35.6,33.8,93,30.12,10.0,ESE,4.6,-,N/A,,Overcast,120,2013-12-08 19:15:00
2:35 PM,35.6,35.6,100,30.10,10.0,East,3.5,-,N/A,,Overcast,100,2013-12-08 19:35:00
2:55 PM,35.6,35.6,100,30.10,10.0,Calm,Calm,-,N/A,,Overcast,0,2013-12-08 19:55:00
3:15 PM,35.6,35.6,100,30.10,10.0,Calm,Calm,-,N/A,,Overcast,0,2013-12-08 20:15:00
3:35 PM,35.6,35.6,100,30.10,10.0,Calm,Calm,-,N/A,,Overcast,0,2013-12-08 20:35:00
3:55 PM,35.6,35.6,100,30.10,10.0,Calm,Calm,-,N/A,,Overcast,0,2013-12-08 20:55:00
4:15 PM,35.6,35.6,100,30.09,10.0,Calm,Calm,-,N/A,,Overcast,0,2013-12-08 21:15:00
4:35 PM,37.4,35.6,93,30.10,10.0,Calm,Calm,-,N/A,,Overcast,0,2013-12-08 21:35:00
4:55 PM,35.6,35.6,100,30.10,7.0,Calm,Calm,-,N/A,,Overcast,0,2013-12-08 21:55:00
5:15 PM,37.4,35.6,93,30.10,3.0,Calm,Calm,-,N/A,,Overcast,0,2013-12-08 22:15:00
5:35 PM,37.4,37.4,100,30.09,2.5,ESE,3.5,-,N/A,,Overcast,110,2013-12-08 22:35:00
5:55 PM,37.4,37.4,100,30.07,5.0,ESE,3.5,-,N/A,,Overcast,120,2013-12-08 22:55:00
6:15 PM,37.4,37.4,100,30.07,10.0,Calm,Calm,-,N/A,,Overcast,0,2013-12-08 23:15:00
6:35 PM,37.4,37.4,100,30.07,10.0,Calm,Calm,-,N/A,Rain,Light Rain,0,2013-12-08 23:35:00
6:55 PM,37.4,37.4,100,30.08,10.0,Calm,Calm,-,N/A,,Light Drizzle,0,2013-12-08 23:55:00
7:15 PM,37.4,37.4,100,30.06,7.0,Calm,Calm,-,N/A,,Light Drizzle,0,2013-12-09 00:15:00
7:35 PM,37.4,37.4,100,30.05,7.0,Calm,Calm,-,N/A,,Overcast,0,2013-12-09 00:35:00
7:55 PM,39.2,39.2,100,30.08,10.0,WSW,3.5,-,N/A,,Overcast,250,2013-12-09 00:55:00
8:15 PM,41.0,41.0,100,30.06,10.0,Calm,Calm,-,N/A,,Drizzle,0,2013-12-09 01:15:00
8:35 PM,39.2,39.2,100,30.05,5.0,Calm,Calm,-,0.01,Rain,Light Rain,0,2013-12-09 01:35:00
8:55 PM,41.0,41.0,100,30.06,5.0,Calm,Calm,-,0.02,Rain,Light Rain,0,2013-12-09 01:55:00
9:15 PM,41.0,41.0,100,30.04,7.0,Calm,Calm,-,0.01,Rain,Rain,0,2013-12-09 02:15:00
9:35 PM,42.8,42.8,100,30.05,10.0,West,3.5,-,0.01,,Overcast,270,2013-12-09 02:35:00
9:55 PM,42.8,42.8,100,30.04,10.0,Calm,Calm,-,0.01,Rain,Light Rain,0,2013-12-09 02:55:00
10:15 PM,42.8,42.8,100,30.03,5.0,Calm,Calm,-,0.02,Rain,Rain,0,2013-12-09 03:15:00
10:35 PM,41.0,41.0,100,30.04,7.0,NW,5.8,-,0.03,,Light Drizzle,320,2013-12-09 03:35:00
10:55 PM,39.2,39.2,100,30.04,7.0,NW,8.1,-,0.05,Rain,Rain,320,2013-12-09 03:55:00
11:15 PM,41.0,41.0,100,30.05,5.0,Calm,Calm,-,0.02,Rain,Rain,0,2013-12-09 04:15:00
11:35 PM,41.0,41.0,100,30.06,7.0,NW,3.5,-,0.04,Rain,Rain,310,2013-12-09 04:35:00
11:55 PM,41.0,41.0,100,30.06,7.0,Calm,Calm,-,0.04,,Drizzle,0,2013-12-09 04:55:00